THA992 EPWA-VTBS

Flight info

Callsign THA992
Flight time N/A
Altitude 36000
Route XIMBA N195 VENES M857 PODAN DCT KEKED/N0481F370 DCT BADOR DCT LUGEB DCT UDROS UN743 GAKSU UT310 SIN UN644 KARDE UL851 TBN UR317 REBLO M11 MATAL/N0493F390 M11 LUSAL N701 LARGI B701 KRS A240 INRAK B449 RANAH L750 MERUN G452 LKN R460 BBN/N0489F410 R460 CEA L507 IGONI DCT WILLA WILLA1C
Aircraft A359/H-SDE2E3GHIJ1J4J5M1RWYZ/LB2D1

Departure

Time 2026-05-05 18:37
Airport Warsaw Chopin Airport (EPWA)

Arrival

Time N/A
Airport Suvarnabhumi Airport (VTBS)
Time Latitude Longitude Altitude Speed Heading
2026-05-05 18:07 52.17330 20.96848 337 ft 0 kts 63°
2026-05-05 18:24 52.17330 20.96847 336 ft 1 kts 64°
2026-05-05 18:24 52.17323 20.96826 331 ft 3 kts 59°
2026-05-05 18:24 52.17313 20.96799 331 ft 2 kts 60°
2026-05-05 18:25 52.17306 20.96776 332 ft 3 kts 71°
2026-05-05 18:25 52.17302 20.96759 331 ft 3 kts 86°
2026-05-05 18:25 52.17304 20.96725 331 ft 3 kts 123°
2026-05-05 18:25 52.17315 20.96704 331 ft 3 kts 145°
2026-05-05 18:26 52.17332 20.96687 331 ft 3 kts 154°
2026-05-05 18:26 52.17348 20.96674 331 ft 2 kts 154°
2026-05-05 18:26 52.17354 20.96669 331 ft 0 kts 154°
2026-05-05 18:29 52.17352 20.96670 331 ft 0 kts 159°
2026-05-05 18:30 52.17351 20.96671 331 ft 0 kts 156°
2026-05-05 18:30 52.17350 20.96672 331 ft 0 kts 154°
2026-05-05 18:31 52.17343 20.96678 331 ft 1 kts 154°
2026-05-05 18:31 52.17331 20.96687 331 ft 6 kts 154°
2026-05-05 18:31 52.17278 20.96730 332 ft 9 kts 154°
2026-05-05 18:31 52.17216 20.96772 332 ft 10 kts 169°
2026-05-05 18:32 52.17156 20.96740 331 ft 9 kts 225°
2026-05-05 18:32 52.17105 20.96675 332 ft 10 kts 202°
2026-05-05 18:32 52.17045 20.96696 332 ft 9 kts 154°
2026-05-05 18:32 52.16989 20.96742 334 ft 9 kts 153°
2026-05-05 18:33 52.16930 20.96794 333 ft 10 kts 150°
2026-05-05 18:33 52.16863 20.96854 331 ft 12 kts 151°
2026-05-05 18:33 52.16786 20.96924 332 ft 13 kts 151°
2026-05-05 18:33 52.16705 20.96993 332 ft 13 kts 152°
2026-05-05 18:34 52.16622 20.97065 332 ft 14 kts 152°
2026-05-05 18:34 52.16538 20.97139 333 ft 13 kts 152°
2026-05-05 18:34 52.16487 20.97184 338 ft 12 kts 152°
2026-05-05 18:34 52.16420 20.97274 351 ft 13 kts 122°
2026-05-05 18:35 52.16381 20.97398 355 ft 12 kts 116°
2026-05-05 18:35 52.16335 20.97572 358 ft 21 kts 114°
2026-05-05 18:35 52.16266 20.97817 363 ft 24 kts 114°
2026-05-05 18:35 52.16201 20.98059 365 ft 22 kts 110°
2026-05-05 18:36 52.16161 20.98224 367 ft 6 kts 162°
2026-05-05 18:36 52.16152 20.98202 363 ft 1 kts 266°
2026-05-05 18:36 52.16154 20.98198 363 ft 0 kts 283°
2026-05-05 18:36 52.16216 20.97907 365 ft 64 kts 291°
2026-05-05 18:37 52.16518 20.96880 353 ft 134 kts 295°
2026-05-05 18:37 52.16981 20.95265 527 ft 171 kts 294°
2026-05-05 18:37 52.17495 20.93530 1361 ft 166 kts 291°
2026-05-05 18:37 52.17924 20.91761 1876 ft 173 kts 278°
2026-05-05 18:38 52.17916 20.89754 2079 ft 185 kts 256°
2026-05-05 18:38 52.17653 20.87566 2269 ft 207 kts 255°
2026-05-05 18:38 52.17341 20.85136 2468 ft 230 kts 256°
2026-05-05 18:38 52.17021 20.82493 2858 ft 244 kts 256°
2026-05-05 18:39 52.16698 20.79744 3426 ft 249 kts 257°
2026-05-05 18:39 52.16174 20.77096 4038 ft 250 kts 243°
2026-05-05 18:39 52.15156 20.74811 4663 ft 252 kts 222°
2026-05-05 18:39 52.13630 20.73398 5290 ft 256 kts 197°
2026-05-05 18:40 52.11846 20.73117 5982 ft 261 kts 181°
2026-05-05 18:40 52.10027 20.73393 6681 ft 264 kts 174°
2026-05-05 18:40 52.08206 20.73933 7369 ft 267 kts 172°
2026-05-05 18:40 52.06385 20.74567 8083 ft 269 kts 171°
2026-05-05 18:41 52.04549 20.75208 8821 ft 271 kts 172°
2026-05-05 18:41 52.02691 20.75820 9533 ft 273 kts 173°
2026-05-05 18:41 52.00809 20.76395 10114 ft 281 kts 174°
2026-05-05 18:41 51.98820 20.76961 10397 ft 299 kts 174°
2026-05-05 18:42 51.96708 20.77535 10665 ft 317 kts 174°
2026-05-05 18:42 51.94472 20.78134 10927 ft 334 kts 174°
2026-05-05 18:42 51.92123 20.78765 11185 ft 350 kts 174°
2026-05-05 18:42 51.89703 20.79421 11494 ft 362 kts 174°
2026-05-05 18:43 51.87199 20.80108 12032 ft 368 kts 173°
2026-05-05 18:43 51.84664 20.80807 12613 ft 371 kts 173°
2026-05-05 18:43 51.82104 20.81513 13205 ft 375 kts 173°
2026-05-05 18:43 51.79510 20.82225 13778 ft 379 kts 173°
2026-05-05 18:44 51.76896 20.82940 14298 ft 383 kts 173°
2026-05-05 18:44 51.74257 20.83660 14830 ft 387 kts 173°
2026-05-05 18:44 51.71589 20.84385 15369 ft 390 kts 173°
2026-05-05 18:44 51.68898 20.85116 15911 ft 394 kts 173°
2026-05-05 18:45 51.66183 20.85853 16454 ft 397 kts 173°
2026-05-05 18:45 51.63448 20.86594 16989 ft 401 kts 173°
2026-05-05 18:45 51.60683 20.87343 17534 ft 404 kts 173°
2026-05-05 18:45 51.57902 20.88095 18073 ft 407 kts 173°
2026-05-05 18:46 51.55100 20.88851 18541 ft 410 kts 173°
2026-05-05 18:46 51.52270 20.89613 19005 ft 414 kts 173°
2026-05-05 18:46 51.49418 20.90380 19481 ft 417 kts 173°
2026-05-05 18:46 51.46544 20.91152 19968 ft 420 kts 173°
2026-05-05 18:47 51.43644 20.91931 20462 ft 424 kts 173°
2026-05-05 18:47 51.40722 20.92714 20948 ft 428 kts 173°
2026-05-05 18:47 51.37778 20.93502 21379 ft 431 kts 172°
2026-05-05 18:47 51.34817 20.94295 21645 ft 432 kts 172°
2026-05-05 18:48 51.31849 20.95089 21912 ft 434 kts 172°
2026-05-05 18:48 51.28863 20.95887 22170 ft 436 kts 172°
2026-05-05 18:48 51.25898 20.96677 22428 ft 438 kts 172°
2026-05-05 18:48 51.22875 20.97481 22783 ft 443 kts 172°
2026-05-05 18:49 51.19825 20.98290 23272 ft 446 kts 172°
2026-05-05 18:49 51.16756 20.99104 23708 ft 450 kts 172°
2026-05-05 18:49 51.13655 20.99926 24132 ft 452 kts 172°
2026-05-05 18:49 51.10546 21.00749 24565 ft 454 kts 172°
2026-05-05 18:50 51.07419 21.01575 24999 ft 457 kts 172°
2026-05-05 18:50 51.04273 21.02406 25421 ft 459 kts 172°
2026-05-05 18:50 51.01113 21.03239 25843 ft 462 kts 172°
2026-05-05 18:50 50.97936 21.04074 26266 ft 464 kts 172°
2026-05-05 18:51 50.94741 21.04913 26678 ft 467 kts 172°
2026-05-05 18:51 50.91525 21.05757 27092 ft 469 kts 172°
2026-05-05 18:51 50.88293 21.06604 27507 ft 472 kts 172°
2026-05-05 18:51 50.85046 21.07453 27914 ft 474 kts 172°
2026-05-05 18:52 50.81783 21.08306 28296 ft 476 kts 173°
2026-05-05 18:52 50.78506 21.09160 28661 ft 479 kts 173°
2026-05-05 18:52 50.75203 21.10021 29033 ft 482 kts 173°
2026-05-05 18:52 50.71886 21.10883 29365 ft 484 kts 173°
2026-05-05 18:53 50.68554 21.11749 29679 ft 486 kts 173°
2026-05-05 18:53 50.65260 21.12604 30007 ft 488 kts 173°
2026-05-05 18:53 50.61906 21.13474 30420 ft 487 kts 173°
2026-05-05 18:53 50.58574 21.14337 30845 ft 485 kts 173°
2026-05-05 18:54 50.55244 21.15199 31232 ft 484 kts 173°
2026-05-05 18:54 50.51925 21.16055 31595 ft 483 kts 173°
2026-05-05 18:54 50.48612 21.16909 31960 ft 482 kts 173°
2026-05-05 18:54 50.45303 21.17760 32331 ft 481 kts 173°
2026-05-05 18:55 50.42003 21.18608 32703 ft 480 kts 173°
2026-05-05 18:55 50.38715 21.19451 33071 ft 479 kts 173°
2026-05-05 18:55 50.35434 21.20291 33416 ft 478 kts 173°
2026-05-05 18:55 50.32155 21.21130 33769 ft 476 kts 173°
2026-05-05 18:56 50.28890 21.21963 34054 ft 475 kts 173°
2026-05-05 18:56 50.25623 21.22797 34314 ft 475 kts 173°
2026-05-05 18:56 50.22359 21.23627 34549 ft 475 kts 173°
2026-05-05 18:56 50.19102 21.24455 34790 ft 475 kts 173°
2026-05-05 18:57 50.15844 21.25283 35023 ft 474 kts 173°
2026-05-05 18:57 50.12590 21.26108 35273 ft 474 kts 173°
2026-05-05 18:57 50.09332 21.26933 35484 ft 474 kts 173°
2026-05-05 18:57 50.06077 21.27757 35700 ft 473 kts 173°
2026-05-05 18:58 50.02816 21.28580 35828 ft 476 kts 173°
2026-05-05 18:58 49.99541 21.29405 35842 ft 480 kts 173°
2026-05-05 18:58 49.92936 21.31067 35846 ft 480 kts 173°
2026-05-05 18:59 49.86329 21.32727 35851 ft 480 kts 173°
2026-05-05 18:59 49.79731 21.34379 35856 ft 480 kts 173°
2026-05-05 19:00 49.73126 21.36028 35862 ft 481 kts 173°
2026-05-05 19:00 49.66521 21.37672 35864 ft 481 kts 173°
2026-05-05 19:01 49.59909 21.39314 35870 ft 481 kts 173°
2026-05-05 19:01 49.53289 21.40953 35872 ft 482 kts 173°
2026-05-05 19:02 49.46673 21.42586 35872 ft 482 kts 173°
2026-05-05 19:02 49.40024 21.43518 35881 ft 479 kts 184°
2026-05-05 19:03 49.33388 21.42771 35880 ft 478 kts 188°
2026-05-05 19:03 49.26775 21.41589 35880 ft 478 kts 188°
2026-05-05 19:04 49.20205 21.40397 35886 ft 479 kts 188°
2026-05-05 19:04 49.13542 21.39249 35898 ft 479 kts 188°
2026-05-05 19:05 49.06918 21.38141 35888 ft 479 kts 188°
2026-05-05 19:05 49.00336 21.37049 35889 ft 479 kts 188°
2026-05-05 19:06 48.93801 21.35966 35888 ft 479 kts 188°
2026-05-05 19:06 48.87212 21.34875 35889 ft 479 kts 188°
2026-05-05 19:07 48.80584 21.33780 35898 ft 479 kts 188°
2026-05-05 19:07 48.73959 21.32688 35894 ft 479 kts 187°
2026-05-05 19:08 48.67335 21.31599 35879 ft 479 kts 187°
2026-05-05 19:08 48.60707 21.30513 35884 ft 479 kts 187°
2026-05-05 19:09 48.54042 21.30429 36001 ft 481 kts 173°
2026-05-05 19:09 48.50771 21.31473 36294 ft 480 kts 164°
2026-05-05 19:09 48.47653 21.33286 36536 ft 481 kts 155°
2026-05-05 19:10 48.44685 21.35633 36737 ft 481 kts 152°
2026-05-05 19:10 48.41776 21.38133 36877 ft 483 kts 151°
2026-05-05 19:10 48.35957 21.43329 36897 ft 489 kts 150°
2026-05-05 19:11 48.30105 21.48527 36900 ft 488 kts 151°
2026-05-05 19:11 48.24237 21.53655 36903 ft 488 kts 151°
2026-05-05 19:12 48.18360 21.58745 36908 ft 488 kts 151°
2026-05-05 19:12 48.12473 21.63826 36910 ft 488 kts 151°
2026-05-05 19:13 48.06582 21.68901 36911 ft 489 kts 151°
2026-05-05 19:13 48.00687 21.73968 36910 ft 489 kts 151°
2026-05-05 19:14 47.94781 21.79032 36909 ft 489 kts 151°
2026-05-05 19:14 47.88874 21.84082 36910 ft 489 kts 151°
2026-05-05 19:15 47.82966 21.89120 36910 ft 490 kts 151°
2026-05-05 19:15 47.77053 21.94148 36915 ft 490 kts 151°
2026-05-05 19:16 47.71140 21.99164 36914 ft 490 kts 151°
2026-05-05 19:16 47.65209 22.04182 36918 ft 490 kts 151°
2026-05-05 19:17 47.59353 22.09358 36921 ft 491 kts 144°
2026-05-05 19:17 47.55172 22.14994 36930 ft 490 kts 131°
2026-05-05 19:18 47.50827 22.22789 36927 ft 491 kts 128°
2026-05-05 19:18 47.46611 22.30756 36931 ft 492 kts 128°
2026-05-05 19:19 47.42387 22.38704 36937 ft 492 kts 128°
2026-05-05 19:19 47.38129 22.46624 36938 ft 492 kts 128°
2026-05-05 19:20 47.33854 22.54520 36941 ft 493 kts 128°
2026-05-05 19:20 47.29569 22.62408 36945 ft 493 kts 128°
2026-05-05 19:21 47.25271 22.70300 36958 ft 494 kts 128°
2026-05-05 19:21 47.20969 22.78178 36958 ft 494 kts 128°
2026-05-05 19:22 47.16656 22.86054 36959 ft 494 kts 128°
2026-05-05 19:22 47.12339 22.93915 36963 ft 494 kts 128°
2026-05-05 19:23 47.08011 23.01774 36965 ft 495 kts 128°
2026-05-05 19:23 47.03699 23.09582 36969 ft 495 kts 128°
2026-05-05 19:24 46.99360 23.17414 36971 ft 495 kts 128°
2026-05-05 19:24 46.95014 23.25237 36972 ft 495 kts 128°
2026-05-05 19:25 46.90659 23.33056 36971 ft 496 kts 128°
2026-05-05 19:25 46.86296 23.40865 36971 ft 496 kts 128°
2026-05-05 19:26 46.81928 23.48662 36969 ft 496 kts 128°
2026-05-05 19:26 46.77555 23.56445 36966 ft 496 kts 128°
2026-05-05 19:27 46.73172 23.64225 36966 ft 496 kts 128°
2026-05-05 19:27 46.68788 23.71985 36964 ft 496 kts 128°
2026-05-05 19:28 46.64395 23.79737 36968 ft 496 kts 128°
2026-05-05 19:28 46.59999 23.87473 36967 ft 496 kts 128°
2026-05-05 19:29 46.55595 23.95202 36964 ft 496 kts 128°
2026-05-05 19:29 46.51185 24.02920 36968 ft 496 kts 128°
2026-05-05 19:30 46.46767 24.10631 36966 ft 496 kts 128°
2026-05-05 19:30 46.42349 24.18319 36967 ft 496 kts 128°
2026-05-05 19:31 46.37926 24.25996 36966 ft 496 kts 128°
2026-05-05 19:31 46.33497 24.33661 36964 ft 496 kts 128°
2026-05-05 19:32 46.29067 24.41306 36967 ft 496 kts 128°
2026-05-05 19:32 46.24631 24.48941 36971 ft 496 kts 128°
2026-05-05 19:33 46.20186 24.56570 36973 ft 496 kts 129°
2026-05-05 19:33 46.15733 24.64189 36976 ft 497 kts 129°
2026-05-05 19:34 46.11302 24.71754 36979 ft 497 kts 129°
2026-05-05 19:35 46.04597 24.83159 36983 ft 497 kts 129°
2026-05-05 19:35 46.00124 24.90743 36985 ft 497 kts 129°
2026-05-05 19:36 45.95644 24.98316 36990 ft 497 kts 129°
2026-05-05 19:36 45.91152 25.05889 36993 ft 497 kts 129°
2026-05-05 19:37 45.86661 25.13439 36989 ft 498 kts 129°
2026-05-05 19:37 45.82159 25.20990 37017 ft 498 kts 129°
2026-05-05 19:38 45.77653 25.28525 37008 ft 498 kts 129°
2026-05-05 19:38 45.73137 25.36056 37034 ft 498 kts 129°
2026-05-05 19:39 45.68610 25.43586 37023 ft 499 kts 129°
2026-05-05 19:39 45.64080 25.51100 37021 ft 499 kts 129°
2026-05-05 19:40 45.59550 25.58594 37026 ft 498 kts 129°
2026-05-05 19:40 45.55002 25.66096 37024 ft 498 kts 129°
2026-05-05 19:41 45.50496 25.73510 37027 ft 498 kts 129°
2026-05-05 19:41 45.45947 25.80975 37038 ft 498 kts 129°
2026-05-05 19:42 45.41394 25.88426 37036 ft 498 kts 129°
2026-05-05 19:42 45.36843 25.95853 37040 ft 498 kts 129°
2026-05-05 19:43 45.32282 26.03277 37038 ft 499 kts 129°
2026-05-05 19:43 45.27710 26.10701 37034 ft 499 kts 129°
2026-05-05 19:44 45.23134 26.18111 37028 ft 499 kts 129°
2026-05-05 19:44 45.18547 26.25519 37025 ft 499 kts 129°
2026-05-05 19:45 45.13964 26.32900 37022 ft 499 kts 129°
2026-05-05 19:45 45.09375 26.40272 37018 ft 499 kts 130°
2026-05-05 19:46 45.04815 26.47576 37019 ft 484 kts 130°
2026-05-05 19:46 45.02612 26.51093 37021 ft 473 kts 130°
2026-05-05 19:46 45.00446 26.54552 37018 ft 470 kts 130°
2026-05-05 19:47 44.96116 26.61457 37021 ft 470 kts 130°
2026-05-05 19:47 44.91800 26.68325 37019 ft 470 kts 130°
2026-05-05 19:48 44.87458 26.75214 37016 ft 470 kts 130°
2026-05-05 19:48 44.83105 26.82102 37017 ft 470 kts 130°
2026-05-05 19:49 44.78757 26.88967 37021 ft 470 kts 130°
2026-05-05 19:49 44.74403 26.95823 37023 ft 470 kts 130°
2026-05-05 19:50 44.70043 27.02670 37023 ft 470 kts 130°
2026-05-05 19:50 44.65680 27.09507 37025 ft 470 kts 130°
2026-05-05 19:51 44.61308 27.16342 37028 ft 470 kts 130°
2026-05-05 19:51 44.56940 27.23153 37029 ft 470 kts 130°
2026-05-05 19:52 44.52562 27.29964 37032 ft 469 kts 130°
2026-05-05 19:52 44.48194 27.36741 37034 ft 470 kts 130°